Regional Weather Roundup
Issued by NWS

Home | Current Version | Previous Version | Graphics & Text | Print | Product List | Glossary On
Versions: 1 2 3 4 5 6 7 8 9 10 11 12 13 14 15 16 17 18 19 20 21 22 23 24 25 26 27 28 29 30 31 32 33 34 35 36 37 38 39 40 41 42 43 44 45 46 47 48 49 50
000
ASUS45 KABQ 220801
RWRNM
WEATHER ROUNDUP FOR NEW MEXICO
NATIONAL WEATHER SERVICE ALBUQUERQUE NM
200 AM MDT TUE JUL 22 2014

NOTE: "FAIR" MEANS FEW OR NO CLOUDS BELOW 12,000 FEET AGL WITH NO
       SIGNIFICANT WEATHER OR OBSTRUCTIONS TO VISION.

      THIS PRODUCT IS RELEASED AS TWO VERSIONS.  ONE VERSION NEAR
      THE TOP OF THE HOUR CONTAINING PRELIMINARY DATA FROM ALBUQUERQUE
      AND OTHER STATIONS.  A FINAL VERSION WITH ADDITIONAL DATA IS
      ISSUED ABOUT 10 MINUTES AFTER THE HOUR.

NMZ501-503-504-510>518-220900-
NORTHWEST PLATEAU/NORTHCENTRAL MOUNTAINS

CITY           SKY/WX    TMP DP  RH WIND       PRES   REMARKS
FARMINGTON     CLEAR     65  28  24 N6        30.24R
LOS ALAMOS     CLOUDY    70  44  39 SW8       30.40F
SANTA FE       CLOUDY    70  49  47 CALM      30.32F
TAOS           MOCLDY    61  45  55 SE5       30.40S
ANGEL FIRE     FAIR      51  49  93 CALM      30.51S

$$
NMZ402-403-502-505>509-220900-
WESTCENTRAL MOUNTAINS/SOUTHWEST MOUNTAINS

CITY           SKY/WX    TMP DP  RH WIND       PRES   REMARKS
GALLUP         MOCLDY    71  39  31 CALM      30.33S
GRANTS         CLOUDY    64  48  54 NW7       30.34F

$$
NMZ407-409-411-412-220900-
SOUTHERN DESERTS

CITY           SKY/WX    TMP DP  RH WIND       PRES   REMARKS
LORDSBURG      FAIR      77  46  33 CALM      30.14S
DEMING         PTCLDY    73  50  44 W3        30.13S
LAS CRUCES     PTCLDY    78  50  37 SW3       30.15S
HOLLOMAN AFB   CLEAR     78  49  36 CALM      30.09F
T OR C         PTCLDY    82  49  31 NW9       30.16F

$$
NMZ519>523-220900-
CENTRAL VALLEYS/CENTRAL HIGHLANDS

CITY           SKY/WX    TMP DP  RH WIND       PRES   REMARKS
ALBUQUERQUE    CLOUDY    81  49  32 E12       30.23F
DOUBLE EAGLE   CLOUDY    75  51  42 S8        30.27F
MORIARTY ARPT  FAIR      69  53  55 SW8       30.32F
CLINES CORNERS CLOUDY    66  53  63 E7        30.36F
BELEN          FAIR      80  47  30 SE6       30.21F
SOCORRO        MOCLDY    81  46  28 CALM      30.18S

$$
NMZ524>526-539-540-220900-
SOUTHCENTRAL MOUNTAINS

CITY           SKY/WX    TMP DP  RH WIND       PRES   REMARKS
RUIDOSO        NOT AVBL

$$
NMZ527>531-220900-
NORTHEAST HIGHLANDS/NORTHEAST PLAINS

CITY           SKY/WX    TMP DP  RH WIND       PRES   REMARKS
LAS VEGAS      CLOUDY    63  54  72 SE7       30.37F
RATON          PTCLDY    61  52  72 NW6       30.32F
CLAYTON        PTCLDY    65  60  84 S5        30.25S

$$
NMZ532>537-220900-
EASTCENTRAL PLAINS

CITY           SKY/WX    TMP DP  RH WIND       PRES   REMARKS
TUCUMCARI      CLOUDY    71  59  65 SE17G25   30.17F
CANNON AFB     TSTM      66  65  97 NE9       30.27R
CLOVIS AIRPORT NOT AVBL

$$
NMZ028-029-538-220900-
SOUTHEAST PLAINS

CITY           SKY/WX    TMP DP  RH WIND       PRES   REMARKS
ROSWELL        CLEAR     75  61  61 NE8       30.10S
ARTESIA        PTCLDY    75  63  64 CALM      30.09S
CARLSBAD       MOCLDY    85  63  47 S8        30.06F
HOBBS          PTCLDY    77  59  53 S5        30.13S


$$



USA.gov is the U.S. government's official web portal to all federal, state and local government web resources and services.